| time (UTC) | temp F | wind direction | speed knots | gust knots | rain 1hr in | rain 24hr in | rain mn in | humidity % | barometer mb |
| 20260507030903 | 26 | 0 | 0.0 | 0.0 | 0.00 | 0.00 | 0.00 | 93 | 1012.3 |
| 20260507030003 | 25 | 176 | 0.0 | 1.7 | 0.00 | 0.00 | 0.00 | 93 | 1012.2 |
| 20260507025424 | 25 | 176 | 0.0 | 1.7 | 0.00 | 0.00 | 0.00 | 92 | 1012.3 |
| 20260507024503 | 25 | 0 | 0.0 | 0.0 | 0.00 | 0.00 | 0.00 | 92 | 1012.3 |
| 20260507023624 | 25 | 176 | 0.0 | 0.9 | 0.00 | 0.00 | 0.00 | 92 | 1012.1 |
| 20260507022703 | 26 | 0 | 0.0 | 0.0 | 0.00 | 0.00 | 0.00 | 92 | 1012.1 |
| 20260507021803 | 26 | 0 | 0.0 | 0.0 | 0.00 | 0.00 | 0.00 | 92 | 1012.1 |
| 20260507020903 | 26 | 0 | 0.0 | 0.0 | 0.00 | 0.00 | 0.00 | 93 | 1012.1 |
| 20260507020024 | 26 | 0 | 0.0 | 0.0 | 0.00 | 0.00 | 0.00 | 92 | 1012.1 |
| 20260507015403 | 26 | 0 | 0.0 | 0.0 | 0.00 | 0.00 | 0.00 | 92 | 1012.1 |
| 20260507014503 | 26 | 0 | 0.0 | 0.0 | 0.00 | 0.00 | 0.00 | 92 | 1012.1 |
| 20260507013603 | 26 | 0 | 0.0 | 0.0 | 0.00 | 0.00 | 0.00 | 92 | 1012.1 |
| 20260507012703 | 26 | 176 | 0.0 | 1.7 | 0.00 | 0.00 | 0.00 | 92 | 1012.0 |
| 20260507011803 | 26 | 0 | 0.0 | 0.0 | 0.00 | 0.00 | 0.00 | 92 | 1012.0 |
| 20260507010903 | 26 | 0 | 0.0 | 0.0 | 0.00 | 0.00 | 0.00 | 92 | 1012.1 |
| 20260507010004 | 26 | 176 | 0.0 | 0.9 | 0.00 | 0.00 | 0.00 | 92 | 1012.1 |
| 20260507005403 | 26 | 176 | 0.0 | 2.6 | 0.00 | 0.00 | 0.00 | 92 | 1012.0 |
| 20260507004503 | 26 | 0 | 0.0 | 0.0 | 0.00 | 0.00 | 0.00 | 92 | 1011.9 |
| 20260507003603 | 27 | 0 | 0.0 | 0.0 | 0.00 | 0.00 | 0.00 | 92 | 1011.7 |
| 20260507002724 | 27 | 0 | 0.0 | 0.0 | 0.00 | 0.00 | 0.00 | 92 | 1011.7 |
| 20260507001803 | 27 | 0 | 0.0 | 0.0 | 0.00 | 0.00 | 0.00 | 92 | 1011.7 |
| 20260507000903 | 26 | 240 | 0.0 | 0.0 | 0.00 | 0.00 | 0.00 | 92 | 1011.7 |
| 20260507000004 | 26 | 240 | 0.0 | 0.9 | 0.00 | 0.00 | 0.00 | 92 | 1011.6 |
| 20260506235403 | 26 | 240 | 0.0 | 0.9 | 0.00 | 0.00 | 0.00 | 92 | 1011.6 |
| 20260506234524 | 26 | 240 | 0.0 | 1.7 | 0.00 | 0.00 | 0.00 | 91 | 1011.7 |
| 20260506233624 | 27 | 240 | 0.0 | 0.9 | 0.00 | 0.00 | 0.00 | 92 | 1011.6 |
| 20260506232724 | 27 | 240 | 0.0 | 1.7 | 0.00 | 0.00 | 0.00 | 92 | 1011.5 |
| 20260506231803 | 28 | 240 | 0.0 | 1.7 | 0.00 | 0.00 | 0.00 | 92 | 1011.5 |
| 20260506230903 | 28 | 243 | 0.0 | 2.6 | 0.00 | 0.00 | 0.00 | 92 | 1011.5 |
| 20260506230003 | 28 | 0 | 0.0 | 0.0 | 0.00 | 0.00 | 0.00 | 92 | 1011.5 |
| 20260506225403 | 28 | 0 | 0.0 | 0.0 | 0.00 | 0.00 | 0.00 | 92 | 1011.5 |
| 20260506224503 | 28 | 0 | 0.0 | 0.0 | 0.00 | 0.00 | 0.00 | 92 | 1011.4 |
| 20260506223603 | 28 | 331 | 0.0 | 0.9 | 0.00 | 0.00 | 0.00 | 92 | 1011.3 |
| 20260506222703 | 28 | 331 | 0.0 | 1.7 | 0.00 | 0.00 | 0.00 | 92 | 1011.2 |
| 20260506221803 | 28 | 331 | 0.0 | 1.7 | 0.00 | 0.00 | 0.00 | 92 | 1011.1 |
| 20260506220903 | 28 | 0 | 0.0 | 0.0 | 0.00 | 0.00 | 0.00 | 92 | 1011.2 |
| 20260506220024 | 28 | 0 | 0.0 | 0.0 | 0.00 | 0.00 | 0.00 | 92 | 1011.1 |
| 20260506215403 | 28 | 0 | 0.0 | 0.0 | 0.00 | 0.00 | 0.00 | 91 | 1011.0 |
| 20260506214503 | 29 | 331 | 0.0 | 0.9 | 0.00 | 0.00 | 0.00 | 91 | 1011.0 |
| 20260506213603 | 29 | 331 | 0.0 | 1.7 | 0.00 | 0.00 | 0.00 | 92 | 1010.9 |
| 20260506212703 | 29 | 331 | 0.0 | 1.7 | 0.00 | 0.00 | 0.00 | 92 | 1011.0 |
| 20260506211803 | 28 | 331 | 0.0 | 1.7 | 0.00 | 0.00 | 0.00 | 91 | 1010.9 |
| 20260506210903 | 28 | 331 | 0.0 | 1.7 | 0.00 | 0.00 | 0.00 | 91 | 1010.9 |
| 20260506210004 | 28 | 0 | 0.0 | 0.0 | 0.00 | 0.00 | 0.00 | 90 | 1010.8 |
| 20260506205403 | 29 | 0 | 0.0 | 0.0 | 0.00 | 0.00 | 0.00 | 91 | 1010.8 |
| 20260506204503 | 28 | 0 | 0.0 | 0.0 | 0.00 | 0.00 | 0.00 | 91 | 1010.8 |
| 20260506203603 | 28 | 331 | 0.0 | 1.7 | 0.00 | 0.00 | 0.00 | 90 | 1010.8 |
| 20260506202703 | 28 | 0 | 0.0 | 0.0 | 0.00 | 0.00 | 0.00 | 90 | 1010.9 |
| 20260506201803 | 29 | 331 | 0.0 | 0.9 | 0.00 | 0.00 | 0.00 | 91 | 1010.8 |
| 20260506200924 | 28 | 331 | 0.0 | 1.7 | 0.00 | 0.00 | 0.00 | 89 | 1010.7 |
| 20260506200003 | 28 | 331 | 0.0 | 0.9 | 0.00 | 0.00 | 0.00 | 89 | 1010.7 |
| 20260506195403 | 28 | 331 | 0.0 | 0.9 | 0.00 | 0.00 | 0.00 | 88 | 1010.7 |
| 20260506194503 | 29 | 331 | 0.0 | 0.9 | 0.00 | 0.00 | 0.00 | 88 | 1010.7 |
| 20260506193603 | 29 | 331 | 0.0 | 0.9 | 0.00 | 0.00 | 0.00 | 88 | 1010.7 |
| 20260506192724 | 30 | 331 | 0.0 | 0.9 | 0.00 | 0.00 | 0.00 | 88 | 1010.7 |
| 20260506191803 | 30 | 0 | 0.0 | 0.0 | 0.00 | 0.00 | 0.00 | 87 | 1010.7 |
| 20260506190903 | 31 | 0 | 0.0 | 0.0 | 0.00 | 0.00 | 0.00 | 85 | 1010.6 |
| 20260506190006 | 32 | 0 | 0.0 | 0.0 | 0.00 | 0.00 | 0.00 | 84 | 1010.5 |
| 20260506185426 | 32 | 0 | 0.0 | 0.0 | 0.00 | 0.00 | 0.00 | 84 | 1010.4 |
| 20260506184505 | 34 | 0 | 0.0 | 0.0 | 0.00 | 0.00 | 0.00 | 82 | 1010.4 |
| 20260506183605 | 35 | 0 | 0.0 | 0.0 | 0.00 | 0.00 | 0.00 | 81 | 1010.3 |
| 20260506182705 | 36 | 0 | 0.0 | 0.0 | 0.00 | 0.00 | 0.00 | 78 | 1010.2 |
| 20260506181804 | 38 | 331 | 1.7 | 4.3 | 0.00 | 0.00 | 0.00 | 78 | 1010.0 |
| 20260506180905 | 38 | 331 | 1.7 | 2.6 | 0.00 | 0.00 | 0.00 | 78 | 1009.9 |
| 20260506180006 | 39 | 334 | 3.5 | 5.2 | 0.00 | 0.00 | 0.00 | 78 | 1009.9 |
| 20260506175405 | 39 | 331 | 3.5 | 5.2 | 0.00 | 0.00 | 0.00 | 77 | 1009.8 |
| 20260506174526 | 40 | 330 | 2.6 | 4.3 | 0.00 | 0.00 | 0.00 | 76 | 1009.8 |
| 20260506173605 | 40 | 306 | 3.5 | 7.0 | 0.00 | 0.00 | 0.00 | 76 | 1009.8 |
| 20260506172705 | 40 | 317 | 3.5 | 7.0 | 0.00 | 0.00 | 0.00 | 77 | 1009.6 |
| 20260506171805 | 40 | 318 | 5.2 | 10.4 | 0.00 | 0.00 | 0.00 | 76 | 1009.6 |
| 20260506170904 | 40 | 306 | 5.2 | 9.6 | 0.00 | 0.00 | 0.00 | 77 | 1009.5 |
| 20260506170026 | 40 | 306 | 6.1 | 9.6 | 0.00 | 0.00 | 0.00 | 77 | 1009.4 |
| 20260506165405 | 39 | 317 | 5.2 | 8.7 | 0.00 | 0.00 | 0.00 | 77 | 1009.4 |
| 20260506164505 | 40 | 299 | 3.5 | 7.8 | 0.00 | 0.00 | 0.00 | 78 | 1009.3 |
| 20260506163604 | 39 | 299 | 5.2 | 9.6 | 0.00 | 0.00 | 0.00 | 78 | 1009.2 |
| 20260506162705 | 39 | 299 | 6.1 | 9.6 | 0.00 | 0.00 | 0.00 | 77 | 1009.3 |
| 20260506161805 | 40 | 307 | 6.1 | 10.4 | 0.00 | 0.00 | 0.00 | 77 | 1009.2 |
| 20260506160926 | 40 | 295 | 7.0 | 12.2 | 0.00 | 0.00 | 0.00 | 76 | 1009.1 |
| 20260506160005 | 40 | 300 | 7.8 | 12.2 | 0.00 | 0.00 | 0.00 | 77 | 1009.0 |
| 20260506155405 | 40 | 303 | 7.0 | 11.3 | 0.00 | 0.00 | 0.00 | 77 | 1008.9 |
| 20260506154504 | 40 | 302 | 6.1 | 10.4 | 0.00 | 0.00 | 0.00 | 77 | 1008.9 |
| 20260506153605 | 40 | 295 | 7.0 | 10.4 | 0.00 | 0.00 | 0.00 | 77 | 1008.8 |
| 20260506152705 | 40 | 286 | 7.0 | 13.0 | 0.00 | 0.00 | 0.00 | 77 | 1008.7 |
| 20260506151805 | 40 | 295 | 7.0 | 12.2 | 0.00 | 0.00 | 0.00 | 77 | 1008.6 |
| 20260506150905 | 40 | 297 | 7.0 | 11.3 | 0.00 | 0.00 | 0.00 | 77 | 1008.7 |
| 20260506150026 | 40 | 302 | 7.8 | 13.0 | 0.00 | 0.00 | 0.00 | 77 | 1008.6 |
| 20260506145404 | 40 | 301 | 8.7 | 13.9 | 0.00 | 0.00 | 0.00 | 77 | 1008.6 |
| 20260506144504 | 40 | 298 | 8.7 | 14.8 | 0.00 | 0.00 | 0.00 | 76 | 1008.5 |
| 20260506143605 | 41 | 277 | 7.8 | 14.8 | 0.00 | 0.00 | 0.00 | 76 | 1008.4 |
| 20260506142704 | 41 | 280 | 8.7 | 15.6 | 0.00 | 0.00 | 0.00 | 75 | 1008.4 |
| 20260506141804 | 40 | 273 | 8.7 | 19.1 | 0.00 | 0.00 | 0.00 | 75 | 1008.3 |
| 20260506140904 | 40 | 284 | 10.4 | 20.0 | 0.00 | 0.00 | 0.00 | 75 | 1008.2 |
| 20260506140026 | 40 | 282 | 10.4 | 20.0 | 0.00 | 0.00 | 0.00 | 75 | 1008.2 |
| 20260506135405 | 40 | 286 | 9.6 | 20.0 | 0.00 | 0.00 | 0.00 | 74 | 1008.2 |
| 20260506134504 | 40 | 288 | 7.8 | 18.2 | 0.00 | 0.00 | 0.00 | 74 | 1007.9 |
| 20260506133626 | 40 | 290 | 10.4 | 17.4 | 0.00 | 0.00 | 0.00 | 76 | 1007.9 |
| 20260506132704 | 40 | 291 | 9.6 | 17.4 | 0.00 | 0.00 | 0.00 | 75 | 1007.6 |
| 20260506131805 | 41 | 292 | 8.7 | 17.4 | 0.00 | 0.00 | 0.00 | 75 | 1007.6 |
| 20260506130904 | 41 | 281 | 7.8 | 13.9 | 0.00 | 0.00 | 0.00 | 77 | 1007.5 |
| 20260506130005 | 41 | 296 | 7.8 | 14.8 | 0.00 | 0.00 | 0.00 | 77 | 1007.3 |
| 20260506125405 | 41 | 296 | 7.8 | 13.9 | 0.00 | 0.00 | 0.00 | 78 | 1007.3 |
| 20260506124504 | 41 | 305 | 8.7 | 13.9 | 0.00 | 0.00 | 0.00 | 77 | 1007.2 |
| 20260506123626 | 41 | 301 | 7.0 | 14.8 | 0.00 | 0.00 | 0.00 | 77 | 1007.0 |
| 20260506122726 | 40 | 300 | 7.8 | 12.2 | 0.00 | 0.00 | 0.00 | 77 | 1007.0 |
| 20260506121804 | 40 | 307 | 6.1 | 12.2 | 0.00 | 0.00 | 0.00 | 78 | 1007.0 |
| 20260506120905 | 39 | 299 | 7.0 | 13.0 | 0.00 | 0.00 | 0.00 | 77 | 1006.8 |
| 20260506120005 | 39 | 300 | 7.0 | 11.3 | 0.00 | 0.00 | 0.00 | 76 | 1006.7 |
| 20260506115404 | 39 | 305 | 7.0 | 10.4 | 0.00 | 0.00 | 0.00 | 75 | 1006.8 |
| 20260506114504 | 39 | 286 | 7.8 | 13.9 | 0.00 | 0.00 | 0.00 | 72 | 1006.6 |
| 20260506113604 | 40 | 275 | 6.1 | 13.0 | 0.00 | 0.00 | 0.00 | 71 | 1006.5 |
| 20260506112705 | 39 | 279 | 7.0 | 13.9 | 0.00 | 0.00 | 0.00 | 71 | 1006.3 |
| 20260506111804 | 39 | 282 | 7.8 | 16.5 | 0.00 | 0.00 | 0.00 | 72 | 1006.2 |
| 20260506110904 | 39 | 276 | 7.0 | 13.0 | 0.00 | 0.00 | 0.00 | 72 | 1006.1 |
| 20260506110005 | 39 | 272 | 7.0 | 17.4 | 0.00 | 0.00 | 0.00 | 71 | 1006.0 |
| 20260506105405 | 39 | 276 | 7.0 | 17.4 | 0.00 | 0.00 | 0.00 | 71 | 1005.9 |
| 20260506104505 | 39 | 273 | 7.0 | 14.8 | 0.00 | 0.00 | 0.00 | 72 | 1005.8 |
| 20260506103604 | 39 | 280 | 8.7 | 17.4 | 0.00 | 0.00 | 0.00 | 72 | 1005.7 |
| 20260506102704 | 40 | 283 | 8.7 | 17.4 | 0.00 | 0.00 | 0.00 | 71 | 1005.5 |
| 20260506101805 | 40 | 285 | 7.8 | 15.6 | 0.00 | 0.00 | 0.00 | 71 | 1005.4 |
| 20260506100905 | 40 | 278 | 8.7 | 20.9 | 0.00 | 0.00 | 0.00 | 69 | 1005.2 |
| 20260506100025 | 41 | 280 | 7.8 | 15.6 | 0.00 | 0.00 | 0.00 | 69 | 1005.1 |
| 20260506095404 | 41 | 274 | 7.0 | 15.6 | 0.00 | 0.00 | 0.00 | 68 | 1004.9 |
| 20260506094504 | 41 | 283 | 8.7 | 17.4 | 0.00 | 0.00 | 0.00 | 67 | 1004.8 |
| 20260506093604 | 42 | 278 | 7.8 | 14.8 | 0.00 | 0.00 | 0.00 | 64 | 1004.6 |
| 20260506092704 | 42 | 273 | 6.1 | 13.9 | 0.00 | 0.00 | 0.00 | 62 | 1004.4 |
| 20260506091805 | 42 | 269 | 6.1 | 17.4 | 0.00 | 0.00 | 0.00 | 61 | 1004.3 |
| 20260506090904 | 43 | 275 | 4.3 | 13.0 | 0.00 | 0.00 | 0.00 | 58 | 1004.1 |
| 20260506090005 | 43 | 256 | 6.1 | 16.5 | 0.00 | 0.00 | 0.00 | 57 | 1003.9 |
| 20260506085425 | 44 | 262 | 7.0 | 26.1 | 0.00 | 0.00 | 0.00 | 56 | 1003.8 |
| 20260506084504 | 44 | 268 | 7.0 | 26.1 | 0.00 | 0.00 | 0.00 | 56 | 1003.7 |
| 20260506083605 | 44 | 278 | 7.0 | 13.9 | 0.00 | 0.00 | 0.00 | 57 | 1003.6 |
| 20260506082704 | 45 | 280 | 6.1 | 14.8 | 0.00 | 0.00 | 0.00 | 57 | 1003.4 |
| 20260506081804 | 44 | 261 | 6.1 | 17.4 | 0.00 | 0.00 | 0.00 | 59 | 1003.3 |
| 20260506080904 | 44 | 269 | 7.8 | 20.0 | 0.00 | 0.00 | 0.00 | 58 | 1003.2 |
| 20260506072725 | 43 | 273 | 7.8 | 15.6 | 0.00 | 0.00 | 0.00 | 60 | 1002.6 |
| 20260506071804 | 42 | 271 | 7.8 | 18.2 | 0.00 | 0.00 | 0.00 | 61 | 1002.6 |
| 20260506070904 | 42 | 276 | 7.8 | 16.5 | 0.00 | 0.00 | 0.00 | 62 | 1002.5 |
| 20260506061825 | 40 | 269 | 6.1 | 12.2 | 0.00 | 0.00 | 0.00 | 69 | 1002.1 |
| 20260506060925 | 39 | 280 | 7.8 | 15.6 | 0.00 | 0.00 | 0.00 | 68 | 1001.9 |
| 20260506050904 | 37 | 271 | 3.5 | 10.4 | 0.00 | 0.00 | 0.00 | 73 | 1001.3 |
| 20260506044504 | 36 | 265 | 3.5 | 11.3 | 0.00 | 0.00 | 0.00 | 75 | 1001.0 |
| 20260506043604 | 36 | 268 | 3.5 | 13.9 | 0.00 | 0.00 | 0.00 | 75 | 1001.0 |
| 20260506042704 | 36 | 260 | 3.5 | 10.4 | 0.00 | 0.00 | 0.00 | 76 | 1001.0 |
| 20260506041804 | 35 | 266 | 3.5 | 8.7 | 0.00 | 0.00 | 0.00 | 77 | 1000.5 |
| 20260506040904 | 35 | 270 | 2.6 | 7.8 | 0.00 | 0.00 | 0.00 | 78 | 1000.5 |
| 20260506040005 | 34 | 269 | 2.6 | 8.7 | 0.00 | 0.00 | 0.00 | 79 | 1000.1 |
| 20260506035404 | 33 | 272 | 2.6 | 7.8 | 0.00 | 0.00 | 0.00 | 81 | 999.1 |
| 20260506034504 | 32 | 267 | 1.7 | 6.1 | 0.00 | 0.00 | 0.00 | 82 | 1001.5 |
| 20260506033604 | 31 | 262 | 1.7 | 7.0 | 0.00 | 0.00 | 0.00 | 82 | 1000.8 |
| 20260506032704 | 31 | 259 | 2.6 | 7.0 | 0.00 | 0.00 | 0.00 | 82 | 1000.5 |
| 20260506031804 | 31 | 264 | 1.7 | 6.1 | 0.00 | 0.00 | 0.00 | 82 | 1000.5 |